Location: Dayton
(39.7590°N, 84.1920°W)
Time: 03:40:58
(UTC-05:00)

ATLAS CENTAUR R/B - Visible Passes

Search period start: 22 November 2014 00:00
Search period end: 02 December 2014 00:00
Orbit: 253 x 9263 km, 57.4° (Epoch: 09 November)

Date Brightness Start Highest point End Pass type
(mag) Time Alt. Az. Time Alt. Az. Time Alt. Az.
22 Nov 6.2 01:05:50 36° NE 01:05:50 36° NE 01:31:12 10° E visible
22 Nov 5.9 04:20:27 34° NW 04:32:48 90° SW 05:31:48 10° SSE visible
22 Nov 6.7 23:48:06 19° NE 23:48:06 19° NE 23:55:40 10° ENE visible
23 Nov 5.7 03:02:42 52° NNW 03:08:45 67° NE 04:00:52 10° SE visible
23 Nov 6.5 06:17:17 10° NW 06:39:10 49° WSW 07:33:57 10° S visible
24 Nov 5.9 01:44:47 48° NNE 01:44:47 48° NNE 02:23:33 10° ESE visible
24 Nov 6.1 04:59:21 28° NW 05:14:28 71° WSW 06:13:34 10° SSE visible
25 Nov 6.5 00:26:44 29° NE 00:26:44 29° NE 00:44:18 10° E visible
25 Nov 5.7 03:41:17 49° NW 03:49:46 84° NE 04:46:51 10° SE visible
25 Nov 6.7 06:57:50 10° WNW 07:19:56 35° WSW 08:06:28 10° SSW visible
25 Nov 7.0 23:08:31 12° NE 23:08:31 12° NE 23:10:05 10° ENE visible
26 Nov 5.8 02:23:03 59° NNE 02:25:19 61° NE 03:13:31 10° SE visible
26 Nov 6.3 05:37:35 21° NW 05:55:16 54° WSW 06:51:05 10° S visible
27 Nov 6.3 01:04:41 40° NE 01:04:41 40° NE 01:34:29 10° E visible
27 Nov 5.9 04:19:12 43° NW 04:29:58 77° SW 05:28:25 10° SSE visible
27 Nov 6.9 23:46:11 20° ENE 23:46:11 20° ENE 23:55:42 10° ENE visible
28 Nov 5.7 03:00:40 67° NNW 03:04:53 78° NE 03:59:18 10° SE visible
28 Nov 6.6 06:15:10 15° WNW 06:34:53 39° WSW 07:24:02 10° SSW visible
29 Nov 6.1 01:42:01 54° NE 01:42:01 54° NE 02:23:31 10° ESE visible
29 Nov 6.1 04:56:29 36° WNW 05:09:23 60° WSW 06:05:53 10° S visible
30 Nov 6.7 00:23:12 30° ENE 00:23:12 30° ENE 00:43:17 10° E visible
30 Nov 5.8 03:37:39 64° NW 03:43:36 84° SW 04:40:46 10° SSE visible
30 Nov 6.8 06:52:43 10° WNW 07:13:00 26° WSW 07:51:08 10° SW visible
30 Nov 3.5 19:22:14 10° SSW 19:22:56 19° SSW 19:22:56 19° SSW visible
30 Nov 7.2 23:04:16 11° ENE 23:04:16 11° ENE 23:05:38 10° ENE visible
01 Dec 5.9 02:18:42 71° NE 02:18:42 71° NE 03:09:04 10° SE visible
01 Dec 6.4 05:33:08 28° WNW 05:47:48 45° WSW 06:39:10 10° S visible
